| time (UTC) | temp C | wind direction | speed KPH | gust KPH | rain 1hr cm | rain 24hr cm | rain mn cm | humidity % | barometer mb |
| 20260506124510 | 17 | 299 | 0.0 | 8.0 | 0.00 | 0.03 | 0.03 | 66 | 1003.8 |
| 20260506123510 | 17 | 298 | 3.2 | 8.0 | 0.00 | 0.03 | 0.03 | 66 | 1003.7 |
| 20260506122510 | 17 | 300 | 0.0 | 8.0 | 0.00 | 0.03 | 0.03 | 66 | 1003.7 |
| 20260506121510 | 17 | 298 | 0.0 | 8.0 | 0.00 | 0.03 | 0.03 | 66 | 1003.8 |
| 20260506120510 | 17 | 296 | 0.0 | 9.7 | 0.00 | 0.03 | 0.03 | 65 | 1003.7 |
| 20260506115510 | 17 | 304 | 3.2 | 8.0 | 0.00 | 0.03 | 0.03 | 65 | 1003.8 |
| 20260506114510 | 17 | 294 | 0.0 | 8.0 | 0.00 | 0.03 | 0.03 | 64 | 1003.9 |
| 20260506113510 | 17 | 315 | 0.0 | 12.9 | 0.00 | 0.03 | 0.03 | 64 | 1003.9 |
| 20260506111510 | 17 | 313 | 6.4 | 9.7 | 0.00 | 0.03 | 0.03 | 64 | 1003.9 |
| 20260506110510 | 17 | 317 | 4.8 | 8.0 | 0.00 | 0.03 | 0.03 | 69 | 1004.1 |
| 20260506104511 | 16 | 355 | 3.2 | 12.9 | 0.00 | 0.03 | 0.03 | 69 | 1004.2 |
| 20260506103510 | 16 | 335 | 6.4 | 11.3 | 0.00 | 0.03 | 0.03 | 68 | 1004.3 |
| 20260506102510 | 16 | 317 | 4.8 | 9.7 | 0.00 | 0.03 | 0.03 | 68 | 1004.4 |
| 20260506101510 | 16 | 242 | 0.0 | 0.0 | 0.00 | 0.03 | 0.03 | 66 | 1004.8 |
| 20260506100510 | 16 | 173 | 0.0 | 0.0 | 0.00 | 0.03 | 0.03 | 66 | 1004.9 |
| 20260506095510 | 16 | 173 | 0.0 | 0.0 | 0.00 | 0.03 | 0.03 | 67 | 1004.9 |
| 20260506094510 | 16 | 173 | 0.0 | 0.0 | 0.00 | 0.03 | 0.03 | 66 | 1004.9 |
| 20260506093510 | 16 | 173 | 0.0 | 0.0 | 0.00 | 0.03 | 0.03 | 68 | 1004.9 |
| 20260506092510 | 16 | 173 | 0.0 | 0.0 | 0.00 | 0.03 | 0.03 | 68 | 1004.9 |
| 20260506091510 | 16 | 173 | 0.0 | 0.0 | 0.00 | 0.03 | 0.03 | 70 | 1004.9 |
| 20260506090510 | 15 | 173 | 0.0 | 0.0 | 0.00 | 0.03 | 0.03 | 71 | 1004.9 |
| 20260506085510 | 15 | 173 | 0.0 | 0.0 | 0.00 | 0.03 | 0.03 | 74 | 1004.9 |
| 20260506084510 | 14 | 173 | 0.0 | 0.0 | 0.00 | 0.03 | 0.03 | 75 | 1004.8 |
| 20260506081510 | 13 | 173 | 0.0 | 0.0 | 0.00 | 0.03 | 0.03 | 79 | 1004.9 |
| 20260506080510 | 13 | 173 | 0.0 | 0.0 | 0.00 | 0.03 | 0.03 | 79 | 1004.9 |
| 20260506073510 | 12 | 173 | 0.0 | 0.0 | 0.00 | 0.03 | 0.03 | 84 | 1005.1 |
| 20260506072510 | 12 | 173 | 0.0 | 0.0 | 0.00 | 0.03 | 0.03 | 85 | 1005.4 |
| 20260506071510 | 12 | 173 | 0.0 | 0.0 | 0.00 | 0.03 | 0.03 | 87 | 1005.5 |
| 20260506070510 | 12 | 173 | 0.0 | 0.0 | 0.00 | 0.03 | 0.03 | 88 | 1005.4 |
| 20260506062510 | 10 | 173 | 0.0 | 0.0 | 0.00 | 0.03 | 0.03 | 91 | 1005.0 |
| 20260506061510 | 10 | 173 | 0.0 | 0.0 | 0.00 | 0.03 | 0.03 | 91 | 1005.3 |
| 20260506050510 | 8 | 173 | 0.0 | 0.0 | 0.00 | 0.03 | 0.03 | 90 | 1005.4 |
| 20260506044510 | 8 | 173 | 0.0 | 0.0 | 0.00 | 0.03 | 0.03 | 90 | 1005.5 |
| 20260506043510 | 8 | 174 | 0.0 | 0.0 | 0.00 | 0.03 | 0.03 | 90 | 1005.6 |
| 20260506041510 | 8 | 173 | 0.0 | 0.0 | 0.03 | 0.03 | 0.03 | 90 | 1005.7 |
| 20260506040510 | 8 | 175 | 0.0 | 0.0 | 0.03 | 0.03 | 0.03 | 90 | 1005.9 |
| 20260506035510 | 8 | 175 | 0.0 | 0.0 | 0.03 | 0.03 | 0.03 | 90 | 1005.9 |
| 20260506034510 | 8 | 177 | 0.0 | 0.0 | 0.03 | 0.03 | 0.03 | 89 | 1006.0 |
| 20260506033510 | 8 | 202 | 0.0 | 0.0 | 0.03 | 0.03 | 0.03 | 90 | 1006.2 |
| 20260506030510 | 8 | 202 | 0.0 | 0.0 | 0.00 | 0.00 | 0.00 | 89 | 1006.2 |
| 20260506025510 | 8 | 202 | 0.0 | 0.0 | 0.00 | 0.00 | 0.00 | 89 | 1006.3 |
| 20260506024510 | 8 | 202 | 0.0 | 0.0 | 0.00 | 0.00 | 0.00 | 89 | 1006.4 |
| 20260506023510 | 8 | 202 | 0.0 | 0.0 | 0.00 | 0.00 | 0.00 | 89 | 1006.4 |
| 20260506022510 | 8 | 202 | 0.0 | 0.0 | 0.00 | 0.00 | 0.00 | 89 | 1006.5 |
| 20260506021510 | 8 | 202 | 0.0 | 0.0 | 0.00 | 0.00 | 0.00 | 89 | 1006.6 |
| 20260506020510 | 8 | 202 | 0.0 | 0.0 | 0.00 | 0.00 | 0.00 | 89 | 1006.5 |
| 20260506015510 | 9 | 202 | 0.0 | 0.0 | 0.00 | 0.00 | 0.00 | 89 | 1006.5 |
| 20260506014510 | 9 | 202 | 0.0 | 0.0 | 0.00 | 0.00 | 0.00 | 89 | 1006.5 |
| 20260506013510 | 9 | 202 | 0.0 | 0.0 | 0.00 | 0.00 | 0.00 | 89 | 1006.6 |
| 20260506012510 | 9 | 202 | 0.0 | 0.0 | 0.00 | 0.00 | 0.00 | 89 | 1006.7 |
| 20260506011510 | 9 | 202 | 0.0 | 0.0 | 0.00 | 0.00 | 0.00 | 89 | 1007.0 |
| 20260506010510 | 9 | 202 | 0.0 | 0.0 | 0.00 | 0.00 | 0.00 | 89 | 1007.0 |
| 20260506005510 | 9 | 203 | 0.0 | 0.0 | 0.00 | 0.00 | 0.00 | 89 | 1006.9 |
| 20260506004510 | 9 | 197 | 0.0 | 0.0 | 0.00 | 0.00 | 0.00 | 89 | 1006.8 |
| 20260506003510 | 9 | 197 | 0.0 | 0.0 | 0.00 | 0.00 | 0.00 | 89 | 1006.8 |
| 20260506002510 | 9 | 198 | 0.0 | 0.0 | 0.00 | 0.00 | 0.00 | 88 | 1006.9 |
| 20260506001510 | 9 | 198 | 0.0 | 0.0 | 0.00 | 0.00 | 0.00 | 88 | 1007.0 |
| 20260505235510 | 9 | 198 | 0.0 | 3.2 | 0.00 | 0.00 | 0.00 | 87 | 1007.0 |
| 20260505234510 | 9 | 198 | 0.0 | 0.0 | 0.00 | 0.00 | 0.00 | 87 | 1007.2 |
| 20260505233510 | 9 | 198 | 0.0 | 0.0 | 0.00 | 0.00 | 0.00 | 87 | 1007.2 |
| 20260505232510 | 10 | 198 | 0.0 | 0.0 | 0.00 | 0.00 | 0.00 | 86 | 1007.5 |
| 20260505231510 | 10 | 198 | 0.0 | 0.0 | 0.00 | 0.00 | 0.00 | 86 | 1007.4 |
| 20260505230510 | 10 | 198 | 0.0 | 0.0 | 0.00 | 0.00 | 0.00 | 86 | 1007.6 |
| 20260505225510 | 10 | 198 | 0.0 | 9.7 | 0.00 | 0.00 | 0.00 | 86 | 1007.5 |
| 20260505224510 | 10 | 200 | 0.0 | 0.0 | 0.00 | 0.00 | 0.00 | 85 | 1007.5 |
| 20260505223510 | 10 | 200 | 0.0 | 0.0 | 0.00 | 0.00 | 0.00 | 85 | 1007.5 |
| 20260505222510 | 11 | 205 | 0.0 | 0.0 | 0.00 | 0.00 | 0.00 | 84 | 1007.5 |
| 20260505221509 | 11 | 209 | 0.0 | 0.0 | 0.00 | 0.00 | 0.00 | 84 | 1007.5 |
| 20260505215510 | 11 | 204 | 0.0 | 0.0 | 0.00 | 0.03 | 0.03 | 83 | 1007.5 |
| 20260505213514 | 11 | 204 | 0.0 | 0.0 | 0.00 | 0.03 | 0.03 | 83 | 1007.4 |
| 20260505212510 | 12 | 212 | 0.0 | 0.0 | 0.00 | 0.03 | 0.03 | 82 | 1007.4 |
| 20260505211510 | 12 | 209 | 0.0 | 0.0 | 0.00 | 0.03 | 0.03 | 82 | 1007.3 |
| 20260505210510 | 12 | 209 | 0.0 | 0.0 | 0.00 | 0.03 | 0.03 | 81 | 1007.2 |
| 20260505205513 | 12 | 200 | 0.0 | 0.0 | 0.00 | 0.03 | 0.03 | 81 | 1007.3 |
| 20260505204510 | 12 | 183 | 0.0 | 0.0 | 0.00 | 0.03 | 0.03 | 81 | 1007.1 |
| 20260505203510 | 12 | 187 | 0.0 | 0.0 | 0.00 | 0.03 | 0.03 | 80 | 1007.3 |
| 20260505201510 | 13 | 203 | 0.0 | 0.0 | 0.00 | 0.03 | 0.03 | 80 | 1007.3 |
| 20260505200509 | 13 | 200 | 0.0 | 0.0 | 0.00 | 0.03 | 0.03 | 80 | 1007.2 |
| 20260505195511 | 13 | 192 | 0.0 | 0.0 | 0.00 | 0.03 | 0.03 | 78 | 1007.3 |
| 20260505194509 | 13 | 198 | 0.0 | 0.0 | 0.00 | 0.03 | 0.03 | 75 | 1007.2 |
| 20260505193510 | 14 | 199 | 0.0 | 0.0 | 0.00 | 0.03 | 0.03 | 74 | 1007.3 |
| 20260505191510 | 15 | 176 | 0.0 | 0.0 | 0.00 | 0.03 | 0.03 | 72 | 1006.7 |
| 20260505190510 | 15 | 215 | 0.0 | 0.0 | 0.00 | 0.03 | 0.03 | 71 | 1006.3 |
| 20260505185509 | 15 | 235 | 0.0 | 0.0 | 0.00 | 0.03 | 0.03 | 70 | 1006.2 |
| 20260505184510 | 15 | 236 | 0.0 | 0.0 | 0.00 | 0.03 | 0.03 | 69 | 1006.2 |
| 20260505182509 | 15 | 257 | 8.0 | 17.7 | 0.00 | 0.03 | 0.03 | 68 | 1006.0 |
| 20260505181510 | 16 | 234 | 4.8 | 11.3 | 0.00 | 0.03 | 0.03 | 68 | 1005.9 |
| 20260505180510 | 16 | 227 | 0.0 | 0.0 | 0.00 | 0.03 | 0.03 | 67 | 1005.7 |
| 20260505175511 | 16 | 227 | 0.0 | 0.0 | 0.00 | 0.03 | 0.03 | 66 | 1005.6 |
| 20260505174509 | 16 | 227 | 0.0 | 11.3 | 0.00 | 0.03 | 0.03 | 66 | 1005.7 |
| 20260505172509 | 16 | 250 | 0.0 | 4.8 | 0.00 | 0.03 | 0.03 | 65 | 1005.5 |
| 20260505170509 | 17 | 234 | 8.0 | 12.9 | 0.00 | 0.03 | 0.03 | 61 | 1005.4 |
| 20260505165509 | 17 | 276 | 0.0 | 4.8 | 0.00 | 0.03 | 0.03 | 61 | 1005.2 |
| 20260505164509 | 17 | 276 | 0.0 | 0.0 | 0.00 | 0.03 | 0.03 | 62 | 1005.2 |
| 20260505163510 | 17 | 276 | 0.0 | 0.0 | 0.00 | 0.03 | 0.03 | 62 | 1005.2 |
| 20260505162509 | 17 | 276 | 0.0 | 0.0 | 0.00 | 0.03 | 0.03 | 63 | 1005.2 |
| 20260505161509 | 17 | 276 | 0.0 | 6.4 | 0.00 | 0.03 | 0.03 | 66 | 1005.5 |
| 20260505160509 | 17 | 280 | 0.0 | 0.0 | 0.00 | 0.03 | 0.03 | 65 | 1005.4 |
| 20260505151510 | 17 | 288 | 0.0 | 0.0 | 0.00 | 0.03 | 0.03 | 67 | 1005.5 |
| 20260505150509 | 17 | 296 | 0.0 | 0.0 | 0.00 | 0.03 | 0.03 | 67 | 1005.6 |